Huron, SD

1:59 AM CDT on May 28, 2017 (GMT -0500)
Huron Regional

Weather History for KHON - May, 2013

Change the Weather History Date:

Thursday, May 2, 2013

  Actual Average Record
Temperature  
Mean Temperature 41 °F 54 °F  
Max Temperature 55 °F 66 °F 92 °F (1955)
Min Temperature 27 °F 41 °F 20 °F (2005)
Degree Days  
Heating Degree Days 24 12  
Month to date heating degree days 48 24  
Since 1 July heating degree days 7929 7402  
Cooling Degree Days 0 0  
Month to date cooling degree days 0 0  
Year to date cooling degree days 0 4  
Moisture  
Dew Point 24 °F    
Average Humidity 60    
Maximum Humidity 92    
Minimum Humidity 27    
Precipitation  
Precipitation 0.00 in 0.10 in 0.97 in (1997)
Month to date precipitation 0.00 0.19  
Year to date precipitation 5.10 5.06  
Snow  
Snow 0.00 in 0.10 in 1.60 in (1954)
Month to date snowfall 0.0 0.1  
Since 1 July snowfall 60.1 44.0  
Snow Depth 0.00 in    
Sea Level Pressure  
Sea Level Pressure 30.61 in    
Wind  
Wind Speed 11 mph (North)    
Max Wind Speed 24 mph    
Max Gust Speed 33 mph    
Visibility 10 miles    
Events      
T = Trace of Precipitation, MM = Missing Value Source: NWS Daily Summary

Daily Weather History Graph

Daily Weather History Graph

Search for Another Location

Airport or City:

Trip Planner

Search our weather history database for the weather conditions in past years. The results will help you decide how hot, cold, wet, or windy it might be!

Date:

Astronomy

May. 02, 2013 Rise Set
Actual Time 6:21 AM CDT 8:38 PM CDT
Civil Twilight 5:49 AM CDT 9:10 PM CDT
Nautical Twilight 5:10 AM CDT 9:50 PM CDT
Astronomical Twilight 4:25 AM CDT 10:35 PM CDT
Moon 2:26 AM CDT (5/2) 1:13 PM CDT (5/2)
Length of Visible Light 15h 21m
Length of Day
14h 16m
Waning Gibbous, 47% of the Moon is Illuminated
May 2
Waning Gibbous
May 9
New
May 17
First Quarter
May 24
Full
May 31
Last Quarter

Hourly Weather History & Observations

Time (CDT) Temp. Windchill Dew Point Humidity Pressure Visibility Wind Dir Wind Speed Gust Speed Precip Events Conditions
12:55 AM 37.0 °F 34.5 °F 28.0 °F 70% 30.62 in 10.0 mi NE 3.5 mph - N/A   Clear
1:55 AM 36.0 °F 33.3 °F 28.0 °F 73% 30.63 in 10.0 mi NNE 3.5 mph - N/A   Clear
2:55 AM 30.9 °F 26.2 °F 27.0 °F 85% 30.64 in 10.0 mi NNW 4.6 mph - N/A   Clear
3:55 AM 30.0 °F 24.1 °F 27.0 °F 88% 30.64 in 10.0 mi NNW 5.8 mph - N/A   Clear
4:55 AM 28.0 °F 21.7 °F 26.1 °F 92% 30.67 in 10.0 mi NW 5.8 mph - N/A   Clear
5:55 AM 27.0 °F 23.0 °F 25.0 °F 92% 30.68 in 10.0 mi NW 3.5 mph - N/A   Clear
6:55 AM 27.0 °F 23.0 °F 25.0 °F 92% 30.69 in 10.0 mi NW 3.5 mph - N/A   Clear
7:55 AM 32.0 °F 25.6 °F 28.9 °F 88% 30.71 in 10.0 mi NNW 6.9 mph - N/A   Clear
8:55 AM 37.0 °F 32.4 °F 30.0 °F 76% 30.72 in 10.0 mi NNW 5.8 mph - N/A   Clear
9:55 AM 41.0 °F 34.7 °F 28.9 °F 62% 30.71 in 10.0 mi NNW 10.4 mph - N/A   Clear
10:55 AM 46.0 °F 39.0 °F 25.0 °F 44% 30.69 in 10.0 mi North 17.3 mph 21.9 mph N/A   Clear
11:55 AM 48.9 °F - 24.1 °F 38% 30.66 in 10.0 mi NNW 17.3 mph 26.5 mph N/A   Clear
12:55 PM 50.0 °F - 23.0 °F 35% 30.63 in 10.0 mi North 19.6 mph 26.5 mph N/A   Clear
1:55 PM 54.0 °F - 23.0 °F 30% 30.60 in 10.0 mi NNW 23.0 mph 31.1 mph N/A   Partly Cloudy
2:55 PM 54.0 °F - 21.9 °F 29% 30.58 in 10.0 mi North 17.3 mph 31.1 mph N/A   Clear
3:55 PM 55.0 °F - 23.0 °F 29% 30.56 in 10.0 mi NNE 17.3 mph 25.3 mph N/A   Partly Cloudy
4:55 PM 54.0 °F - 21.9 °F 29% 30.54 in 10.0 mi NNE 20.7 mph 25.3 mph N/A   Partly Cloudy
5:55 PM 53.1 °F - 21.0 °F 29% 30.53 in 10.0 mi NNE 13.8 mph 23.0 mph N/A   Clear
6:55 PM 51.1 °F - 19.9 °F 29% 30.52 in 10.0 mi NNE 17.3 mph - N/A   Clear
7:55 PM 48.0 °F - 19.0 °F 32% 30.52 in 10.0 mi NNE 15.0 mph - N/A   Clear
8:55 PM 43.0 °F 38.2 °F 19.0 °F 38% 30.51 in 10.0 mi NE 8.1 mph - N/A   Clear
9:55 PM 37.0 °F 32.4 °F 21.0 °F 52% 30.52 in 10.0 mi ENE 5.8 mph - N/A   Clear
10:55 PM 34.0 °F 29.8 °F 21.9 °F 61% 30.52 in 10.0 mi ENE 4.6 mph - N/A   Clear
11:55 PM 33.1 °F 28.7 °F 24.1 °F 70% 30.51 in 10.0 mi NE 4.6 mph - N/A   Clear